Weather History for Tahlequah, OK

Change the Weather History Date:

Monday, March 11, 2013

  Actual Average (KMKO) Record (KMKO)
Temperature  
Mean Temperature 37 °F -  
Max Temperature 46 °F 56 °F 80 °F (2014)
Min Temperature 28 °F 36 °F 19 °F (1998)
Degree Days  
Heating Degree Days 28    
Moisture  
Dew Point 25 °F    
Average Humidity 68    
Maximum Humidity 93    
Minimum Humidity 37    
Precipitation  
Precipitation 0.00 in - - ()
Sea Level Pressure  
Sea Level Pressure 30.01 in    
Wind  
Wind Speed 9 mph (WNW)    
Max Wind Speed 16 mph    
Max Gust Speed 20 mph    
Visibility 10 miles    
Events      
Averages and records for this station are not official NWS values.
T = Trace of Precipitation, MM = Missing Value Source: NWS Daily Summary

Daily Weather History Graph

Daily Weather History Graph

Search for Another Location

Airport:

Trip Planner

Search our weather history database for the weather conditions in past years. The results will help you decide how hot, cold, wet, or windy it might be!

Date:

Astronomy

Mar. 11, 2013 Rise Set
Actual Time 7:36 AM CDT 7:24 PM CDT
Civil Twilight 7:10 AM CDT 7:49 PM CDT
Nautical Twilight 6:40 AM CDT 8:19 PM CDT
Astronomical Twilight 6:11 AM CDT 8:49 PM CDT
Moon 7:11 AM CDT (3/11) 7:35 PM CDT (3/11)
Length of Visible Light 12h 39m
Length of Day
11h 48m
Waning Crescent, 0% of the Moon is Illuminated
Mar 11
Waning Crescent
Mar 11
New
Mar 19
First Quarter
Mar 27
Full
Apr 2
Last Quarter

Hourly Weather History & Observations

Time (CDT) Temp. Windchill Dew Point Humidity Pressure Visibility Wind Dir Wind Speed Gust Speed Precip Events Conditions
12:15 AM 32.0 °F 22.5 °F 26.6 °F 80% 30.02 in 10.0 mi West 12.7 mph - N/A   Overcast
12:35 AM 32.0 °F 21.6 °F 26.6 °F 80% 30.01 in 10.0 mi West 15.0 mph 18.4 mph N/A   Overcast
12:55 AM 30.2 °F 21.3 °F 26.6 °F 86% 30.01 in 10.0 mi WNW 10.4 mph 19.6 mph N/A   Overcast
1:35 AM 30.2 °F 20.2 °F 26.6 °F 86% 30.00 in 10.0 mi WNW 12.7 mph - N/A   Overcast
1:55 AM 30.2 °F 20.2 °F 26.6 °F 86% 30.00 in 10.0 mi WNW 12.7 mph 19.6 mph N/A   Mostly Cloudy
2:15 AM 30.2 °F 20.8 °F 24.8 °F 80% 29.99 in 10.0 mi WNW 11.5 mph 17.3 mph N/A   Mostly Cloudy
2:55 AM 30.2 °F 20.8 °F 26.6 °F 86% 30.00 in 10.0 mi WNW 11.5 mph 17.3 mph N/A   Overcast
3:15 AM 30.2 °F 20.8 °F 26.6 °F 86% 30.00 in 10.0 mi WNW 11.5 mph 17.3 mph N/A   Mostly Cloudy
3:35 AM 30.2 °F 21.3 °F 24.8 °F 80% 30.00 in 10.0 mi WNW 10.4 mph 17.3 mph N/A   Mostly Cloudy
3:55 AM 30.2 °F 21.3 °F 24.8 °F 80% 30.00 in 10.0 mi WNW 10.4 mph 18.4 mph N/A   Mostly Cloudy
4:15 AM 30.2 °F 24.3 °F 24.8 °F 80% 30.00 in 10.0 mi WNW 5.8 mph 16.1 mph N/A   Mostly Cloudy
4:35 AM 30.2 °F 22.6 °F 24.8 °F 80% 29.99 in 10.0 mi WNW 8.1 mph - N/A   Mostly Cloudy
5:15 AM 30.2 °F 24.3 °F 24.8 °F 80% 29.99 in 10.0 mi WNW 5.8 mph - N/A   Clear
5:35 AM 30.2 °F 21.3 °F 24.8 °F 80% 30.00 in 10.0 mi WNW 10.4 mph - N/A   Scattered Clouds
5:55 AM 30.2 °F 21.9 °F 24.8 °F 80% 30.00 in 10.0 mi WNW 9.2 mph - N/A   Mostly Cloudy
6:15 AM 30.2 °F 20.2 °F 23.0 °F 75% 29.99 in 10.0 mi WNW 12.7 mph 18.4 mph N/A   Mostly Cloudy
6:35 AM 30.2 °F 21.9 °F 23.0 °F 75% 29.99 in 10.0 mi NW 9.2 mph - N/A   Mostly Cloudy
6:55 AM 30.2 °F 22.6 °F 23.0 °F 75% 29.99 in 10.0 mi NW 8.1 mph - N/A   Mostly Cloudy
7:15 AM 30.2 °F 21.9 °F 23.0 °F 75% 29.99 in 10.0 mi NW 9.2 mph - N/A   Mostly Cloudy
7:35 AM 28.4 °F 23.3 °F 23.0 °F 80% 29.99 in 10.0 mi WNW 4.6 mph - N/A   Clear
7:55 AM 28.4 °F 23.3 °F 23.0 °F 80% 29.99 in 10.0 mi West 4.6 mph - N/A   Clear
8:15 AM 30.2 °F 22.6 °F 23.0 °F 75% 30.01 in 10.0 mi WNW 8.1 mph - N/A   Clear
8:35 AM 30.2 °F 22.6 °F 23.0 °F 75% 30.01 in 10.0 mi WNW 8.1 mph - N/A   Clear
8:55 AM 32.0 °F 23.0 °F 23.0 °F 69% 30.02 in 10.0 mi WNW 11.5 mph 16.1 mph N/A   Clear
9:15 AM 32.0 °F 24.2 °F 23.0 °F 69% 30.02 in 10.0 mi WNW 9.2 mph - N/A   Clear
9:35 AM 32.0 °F 24.2 °F 24.8 °F 75% 30.03 in 10.0 mi WNW 9.2 mph 19.6 mph N/A   Clear
9:55 AM 32.0 °F 22.5 °F 26.6 °F 80% 30.03 in 10.0 mi WNW 12.7 mph - N/A   Scattered Clouds
10:15 AM 33.8 °F 26.4 °F 26.6 °F 75% 30.02 in 10.0 mi WNW 9.2 mph 16.1 mph N/A   Scattered Clouds
10:35 AM 33.8 °F 24.3 °F 26.6 °F 75% 30.03 in 10.0 mi WNW 13.8 mph 17.3 mph N/A   Scattered Clouds
10:55 AM 33.8 °F 27.7 °F 26.6 °F 75% 30.03 in 10.0 mi West 6.9 mph 16.1 mph N/A   Scattered Clouds
11:15 AM 35.6 °F 28.6 °F 26.6 °F 70% 30.03 in 10.0 mi West 9.2 mph - N/A   Scattered Clouds
11:35 AM 35.6 °F 28.6 °F 26.6 °F 70% 30.03 in 10.0 mi WNW 9.2 mph - N/A   Scattered Clouds
11:55 AM 35.6 °F 28.0 °F 28.4 °F 75% 30.03 in 10.0 mi West 10.4 mph - N/A   Clear
12:15 PM 37.4 °F 31.4 °F 26.6 °F 65% 30.03 in 10.0 mi West 8.1 mph 16.1 mph N/A   Scattered Clouds
12:35 PM 39.2 °F 30.5 °F 26.6 °F 61% 30.04 in 10.0 mi West 16.1 mph 19.6 mph N/A   Scattered Clouds
12:55 PM 39.2 °F 31.6 °F 26.6 °F 61% 30.03 in 10.0 mi West 12.7 mph 18.4 mph N/A   Clear
1:15 PM 41.0 °F 35.8 °F 26.6 °F 57% 30.02 in 10.0 mi West 8.1 mph 16.1 mph N/A   Clear
1:35 PM 41.0 °F 35.8 °F 26.6 °F 57% 30.02 in 10.0 mi West 8.1 mph - N/A   Clear
1:55 PM 41.0 °F 34.3 °F 26.6 °F 57% 30.01 in 10.0 mi West 11.5 mph - N/A   Clear
2:15 PM 42.8 °F 36.6 °F 26.6 °F 53% 30.00 in 10.0 mi WNW 11.5 mph 17.3 mph N/A   Clear
2:35 PM 42.8 °F 37.0 °F 24.8 °F 49% 30.00 in 10.0 mi NW 10.4 mph 16.1 mph N/A   Clear
2:55 PM 42.8 °F 35.4 °F 26.6 °F 53% 30.00 in 10.0 mi West 15.0 mph - N/A   Clear
3:15 PM 44.6 °F 39.7 °F 26.6 °F 49% 30.00 in 10.0 mi West 9.2 mph - N/A   Clear
3:35 PM 44.6 °F 40.2 °F 24.8 °F 46% 29.99 in 10.0 mi NW 8.1 mph 17.3 mph N/A   Clear
3:55 PM 44.6 °F 39.2 °F 24.8 °F 46% 29.99 in 10.0 mi WNW 10.4 mph 17.3 mph N/A   Clear
4:15 PM 46.4 °F 41.9 °F 23.0 °F 40% 29.99 in 10.0 mi WNW 9.2 mph - N/A   Clear
4:35 PM 46.4 °F 41.1 °F 23.0 °F 40% 30.00 in 10.0 mi WNW 11.5 mph - N/A   Clear
4:55 PM 46.4 °F 41.1 °F 23.0 °F 40% 30.00 in 10.0 mi West 11.5 mph 18.4 mph N/A   Clear
5:15 PM 46.4 °F 41.5 °F 23.0 °F 40% 30.00 in 10.0 mi West 10.4 mph - N/A   Clear
5:35 PM 46.4 °F 42.9 °F 23.0 °F 40% 30.00 in 10.0 mi West 6.9 mph - N/A   Clear
5:55 PM 46.4 °F 42.4 °F 23.0 °F 40% 29.99 in 10.0 mi WNW 8.1 mph - N/A   Clear
6:15 PM 46.4 °F - 21.2 °F 37% 29.99 in 10.0 mi Calm Calm - N/A   Clear
6:35 PM 46.4 °F - 21.2 °F 37% 29.99 in 10.0 mi Calm Calm - N/A   Clear
6:55 PM 44.6 °F - 21.2 °F 39% 29.99 in 10.0 mi Calm Calm - N/A   Clear
7:15 PM 42.8 °F - 21.2 °F 42% 30.00 in 10.0 mi Calm Calm - N/A   Clear
7:35 PM 41.0 °F - 21.2 °F 45% 29.99 in 10.0 mi Calm Calm - N/A   Clear
7:55 PM 41.0 °F - 21.2 °F 45% 30.00 in 10.0 mi Calm Calm - N/A   Clear
8:15 PM 37.4 °F - 26.6 °F 65% 30.00 in 10.0 mi Calm Calm - N/A   Clear
8:35 PM 35.6 °F - 26.6 °F 70% 30.00 in 10.0 mi Calm Calm - N/A   Clear
8:55 PM 33.8 °F - 28.4 °F 81% 30.01 in 10.0 mi Calm Calm - N/A   Clear
9:15 PM 33.8 °F - 28.4 °F 81% 30.02 in 10.0 mi Calm Calm - N/A   Clear
9:35 PM 32.0 °F - 26.6 °F 80% 30.03 in 10.0 mi Calm Calm - N/A   Clear
9:55 PM 32.0 °F - 28.4 °F 87% 30.03 in 10.0 mi Calm Calm - N/A   Clear
10:15 PM 32.0 °F - 28.4 °F 87% 30.04 in 10.0 mi Calm Calm - N/A   Clear
10:35 PM 32.0 °F - 26.6 °F 80% 30.04 in 10.0 mi Calm Calm - N/A   Clear
10:55 PM 30.2 °F - 26.6 °F 86% 30.05 in 10.0 mi Calm Calm - N/A   Clear
11:15 PM 30.2 °F - 26.6 °F 86% 30.05 in 10.0 mi Calm Calm - N/A   Clear
11:55 PM 30.2 °F - 28.4 °F 93% 30.04 in 10.0 mi Calm Calm - N/A   Clear